EN

Hourly Weather Pajsandu

Today, 18 April, Sunday

Time Temperature Precipitation Wind Pressure Humidity
00:00 +19°C° 0 mm 3 mps 761 mmHg 88%
01:00 +18°C° 0 mm 3 mps 761 mmHg 90%
02:00 +18°C° 0 mm 3 mps 761 mmHg 93%
03:00 +17°C° 0 mm 3 mps 761 mmHg 94%
04:00 +17°C° 0 mm 3 mps 761 mmHg 94%
05:00 +17°C° 0 mm 2 mps 761 mmHg 94%
06:00 +18°C° 0 mm 3 mps 762 mmHg 90%
07:00 +19°C° 0 mm 3 mps 762 mmHg 85%
08:00 +19°C° 0 mm 3 mps 763 mmHg 81%
09:00 +21°C° 0 mm 3 mps 762 mmHg 74%
10:00 +24°C° 0 mm 3 mps 762 mmHg 66%
11:00 +26°C° 0 mm 3 mps 762 mmHg 59%
12:00 +27°C° 0 mm 3 mps 762 mmHg 54%
13:00 +28°C° 0 mm 3 mps 761 mmHg 50%
14:00 +29°C° 0 mm 3 mps 761 mmHg 46%
15:00 +27°C° 0 mm 2 mps 760 mmHg 50%
16:00 +26°C° 0 mm 2 mps 760 mmHg 54%
17:00 +25°C° 0 mm 2 mps 760 mmHg 58%
18:00 +24°C° 0 mm 3 mps 760 mmHg 62%
19:00 +22°C° 0 mm 3 mps 761 mmHg 66%
20:00 +20°C° 0 mm 4 mps 761 mmHg 70%
21:00 +20°C° 0 mm 4 mps 761 mmHg 73%
22:00 +19°C° 0 mm 4 mps 761 mmHg 77%
23:00 +19°C° 0 mm 4 mps 762 mmHg 81%

Tomorrow, 19 April, Monday

Time Temperature Precipitation Wind Pressure Humidity
00:00 +18°C° 0 mm 4 mps 762 mmHg 85%
01:00 +17°C° 0 mm 3 mps 762 mmHg 89%
02:00 +16°C° 0 mm 3 mps 762 mmHg 93%
03:00 +16°C° 0 mm 3 mps 762 mmHg 93%
04:00 +16°C° 0 mm 3 mps 762 mmHg 94%
05:00 +14°C° 0 mm 3 mps 762 mmHg 94%
06:00 +16°C° 0 mm 3 mps 763 mmHg 88%
07:00 +17°C° 0 mm 4 mps 763 mmHg 83%
08:00 +18°C° 0 mm 4 mps 763 mmHg 77%
09:00 +20°C° 0 mm 5 mps 763 mmHg 67%
10:00 +23°C° 0 mm 5 mps 763 mmHg 57%
11:00 +26°C° 0 mm 5 mps 763 mmHg 48%
12:00 +27°C° 0 mm 5 mps 762 mmHg 44%
13:00 +27°C° 0 mm 5 mps 762 mmHg 40%
14:00 +28°C° 0 mm 5 mps 761 mmHg 37%
15:00 +27°C° 0 mm 4 mps 761 mmHg 43%
16:00 +25°C° 0 mm 4 mps 761 mmHg 50%
17:00 +24°C° 0 mm 3 mps 761 mmHg 56%
18:00 +22°C° 0 mm 4 mps 761 mmHg 60%
19:00 +21°C° 0 mm 5 mps 761 mmHg 64%
20:00 +20°C° 0 mm 5 mps 762 mmHg 67%
21:00 +19°C° 0 mm 5 mps 762 mmHg 72%
22:00 +19°C° 0 mm 5 mps 762 mmHg 76%
23:00 +17°C° 0 mm 5 mps 762 mmHg 80%

Day after tomorrow, 20 April, Tuesday

Time Temperature Precipitation Wind Pressure Humidity
00:00 +16°C° 0 mm 5 mps 762 mmHg 83%
01:00 +17°C° 0 mm 4 mps 762 mmHg 86%
02:00 +15°C° 0 mm 4 mps 762 mmHg 89%
03:00 +15°C° 0 mm 4 mps 762 mmHg 91%
04:00 +14°C° 0 mm 4 mps 762 mmHg 92%
05:00 +14°C° 0 mm 4 mps 762 mmHg 93%
06:00 +15°C° 0 mm 4 mps 762 mmHg 88%
07:00 +16°C° 0 mm 5 mps 763 mmHg 82%
08:00 +17°C° 0 mm 6 mps 763 mmHg 76%
09:00 +20°C° 0 mm 6 mps 763 mmHg 67%
10:00 +22°C° 0 mm 6 mps 763 mmHg 59%
11:00 +26°C° 0 mm 6 mps 762 mmHg 50%
12:00 +27°C° 0 mm 6 mps 762 mmHg 47%
13:00 +27°C° 0 mm 6 mps 761 mmHg 45%
14:00 +28°C° 0 mm 6 mps 761 mmHg 42%
15:00 +27°C° 0 mm 6 mps 760 mmHg 47%
16:00 +26°C° 0 mm 5 mps 760 mmHg 52%
17:00 +25°C° 0 mm 5 mps 760 mmHg 57%
18:00 +23°C° 0 mm 6 mps 760 mmHg 59%
19:00 +22°C° 0 mm 6 mps 760 mmHg 61%
20:00 +21°C° 0 mm 7 mps 761 mmHg 64%
21:00 +20°C° 0 mm 7 mps 761 mmHg 68%
22:00 +20°C° 0 mm 7 mps 761 mmHg 71%
23:00 +18°C° 0 mm 7 mps 760 mmHg 75%

21 April, Wednesday

Time Temperature Precipitation Wind Pressure Humidity
00:00 +18°C° 0 mm 7 mps 760 mmHg 76%
01:00 +17°C° 0 mm 6 mps 760 mmHg 78%
02:00 +17°C° 0 mm 5 mps 760 mmHg 79%
03:00 +16°C° 0 mm 6 mps 760 mmHg 82%
04:00 +16°C° 0 mm 6 mps 760 mmHg 85%
05:00 +16°C° 0 mm 6 mps 760 mmHg 88%
06:00 +17°C° 0 mm 6 mps 760 mmHg 85%
07:00 +18°C° 0 mm 7 mps 761 mmHg 81%
08:00 +20°C° 0 mm 7 mps 761 mmHg 78%
09:00 +22°C° 0 mm 7 mps 761 mmHg 70%
10:00 +24°C° 0 mm 8 mps 760 mmHg 62%
11:00 +27°C° 0 mm 8 mps 760 mmHg 53%
12:00 +28°C° 0 mm 8 mps 760 mmHg 50%
13:00 +29°C° 0 mm 7 mps 759 mmHg 47%
14:00 +30°C° 0 mm 7 mps 759 mmHg 44%
15:00 +29°C° 0 mm 6 mps 759 mmHg 48%
16:00 +28°C° 0 mm 5 mps 759 mmHg 52%
17:00 +26°C° 0 mm 4 mps 759 mmHg 56%
18:00 +26°C° 0 mm 5 mps 759 mmHg 59%
19:00 +24°C° 0 mm 6 mps 760 mmHg 62%
20:00 +23°C° 0 mm 7 mps 760 mmHg 64%
21:00 +22°C° 0 mm 7 mps 760 mmHg 66%
22:00 +22°C° 0 mm 8 mps 759 mmHg 67%
23:00 +21°C° 0 mm 8 mps 759 mmHg 69%

22 April, Thursday

Time Temperature Precipitation Wind Pressure Humidity
00:00 +21°C° 0 mm 7 mps 759 mmHg 72%
01:00 +20°C° 0 mm 6 mps 759 mmHg 75%
02:00 +19°C° 0 mm 5 mps 760 mmHg 78%
03:00 +19°C° 0 mm 5 mps 760 mmHg 79%
04:00 +17°C° 0 mm 5 mps 760 mmHg 80%
05:00 +17°C° 0 mm 5 mps 760 mmHg 81%
06:00 +17°C° 0 mm 5 mps 760 mmHg 80%
07:00 +19°C° 0 mm 5 mps 761 mmHg 80%
08:00 +19°C° 0 mm 5 mps 761 mmHg 79%
09:00 +20°C° 0 mm 5 mps 761 mmHg 73%
10:00 +22°C° 0 mm 6 mps 761 mmHg 68%
11:00 +23°C° 0 mm 6 mps 760 mmHg 63%
12:00 +25°C° 0 mm 5 mps 760 mmHg 60%
13:00 +26°C° 0 mm 5 mps 759 mmHg 56%
14:00 +28°C° 0 mm 4 mps 759 mmHg 53%
15:00 +27°C° 0 mm 4 mps 758 mmHg 55%
16:00 +26°C° 0 mm 3 mps 758 mmHg 58%
17:00 +25°C° 0 mm 3 mps 758 mmHg 61%
18:00 +24°C° 0 mm 3 mps 758 mmHg 63%
19:00 +22°C° 0 mm 3 mps 758 mmHg 66%
20:00 +21°C° 0 mm 4 mps 759 mmHg 68%
21:00 +21°C° 0.7 mm 3 mps 759 mmHg 75%
22:00 +20°C° 0.7 mm 3 mps 759 mmHg 81%
23:00 +19°C° 0.7 mm 3 mps 760 mmHg 88%

23 April, Friday

Time Temperature Precipitation Wind Pressure Humidity
00:00 +18°C° 0.6 mm 3 mps 760 mmHg 89%
01:00 +18°C° 0.6 mm 4 mps 760 mmHg 89%
02:00 +17°C° 0.6 mm 4 mps 760 mmHg 90%
03:00 +17°C° 0.4 mm 4 mps 760 mmHg 91%
04:00 +17°C° 0.4 mm 3 mps 760 mmHg 91%
05:00 +17°C° 0.4 mm 3 mps 760 mmHg 91%
06:00 +17°C° 0.2 mm 3 mps 760 mmHg 90%
07:00 +17°C° 0.2 mm 3 mps 760 mmHg 88%
08:00 +18°C° 0.2 mm 4 mps 761 mmHg 87%
09:00 +20°C° 0 mm 4 mps 760 mmHg 77%
10:00 +22°C° 0 mm 5 mps 760 mmHg 68%
11:00 +25°C° 0 mm 5 mps 760 mmHg 58%
12:00 +26°C° 0 mm 5 mps 759 mmHg 54%
13:00 +28°C° 0 mm 5 mps 758 mmHg 49%
14:00 +29°C° 0 mm 5 mps 757 mmHg 44%
15:00 +28°C° 0 mm 5 mps 757 mmHg 48%
16:00 +26°C° 0 mm 4 mps 757 mmHg 52%
17:00 +25°C° 0 mm 4 mps 756 mmHg 56%
18:00 +23°C° 0 mm 4 mps 756 mmHg 56%
19:00 +22°C° 0 mm 5 mps 756 mmHg 57%
20:00 +22°C° 0 mm 6 mps 756 mmHg 57%
21:00 +21°C° 0.1 mm 5 mps 757 mmHg 61%
22:00 +21°C° 0.1 mm 5 mps 757 mmHg 65%
23:00 +20°C° 0.1 mm 5 mps 757 mmHg 69%
Show more

We Need Your Consent

Meteoprog and our Service Providers may store and access personal data such as cookies, device identifiers or other similar technologies on your device and process such data to personalise content and ads, as well as provide social media features and to analyse the traffic.

  • Store and/or access information on your device

    Cookies, device identifiers or other information can be stored or accessed on your device for the purposes indicated above.

  • Personalised ads and content, ad and content measurement, audience insights, and products development

    Ads and content can be personalised based on a profile. More data can be added to better personalise ads and content. Ad and content performance can be measured. Insights about the audience who saw the ads and content can be derived. Such data can be used to develop or improve user’s experience, systems and software.

By clicking ‘I Agree’ you will allow the use of indicated cookies, device identifiers, web beacons or other similar technologies. Your settings can be changed in the browser on your device.

For certain purposes, legitimate interests may be relied on, rather than consent. You can read more about this in our Privacy and Cookie Policy.